Location: Saint-Denis
(20.8800°S, 55.4481°E)
Time: 20:41:29
(UTC+04:00)

XW-2D - Visible Passes

Search period start: 28 May 2023 00:00
Search period end: 07 June 2023 00:00
Orbit: 475 x 489 km, 97.5° (Epoch: 28 May)

Date Brightness Start Highest point End Pass type
(mag) Time Alt. Az. Time Alt. Az. Time Alt. Az.
28 May ? 18:09:24 10° SSE 18:12:52 44° E 18:16:19 10° N visible
29 May ? 06:07:22 10° N 06:10:54 80° WNW 06:14:29 10° SSW visible
29 May ? 19:18:50 10° SW 19:20:53 15° WSW 19:22:56 10° WNW visible
30 May ? 05:42:35 10° NE 05:45:52 37° ESE 05:49:12 10° S visible
30 May ? 18:52:37 10° S 18:55:55 34° WSW 18:59:12 10° NW visible
31 May ? 05:18:43 10° ENE 05:20:54 16° ESE 05:23:05 10° SE visible
31 May ? 18:27:14 10° S 18:30:52 90° E 18:34:28 10° NNW visible
01 Jun ? 18:02:26 10° SSE 18:05:44 33° E 18:09:00 10° NNE visible
02 Jun ? 06:00:12 10° NNE 06:03:44 75° ESE 06:07:18 10° S visible
02 Jun ? 19:11:07 10° SSW 19:13:43 19° WSW 19:16:18 10° WNW visible
03 Jun ? 05:35:34 10° NE 05:38:38 28° ESE 05:41:44 10° SSE visible
03 Jun ? 18:45:10 10° S 18:48:39 45° WSW 18:52:06 10° NNW visible
04 Jun ? 05:12:10 10° E 05:13:36 12° ESE 05:15:02 10° SE visible
04 Jun ? 18:19:52 10° SSE 18:23:29 66° E 18:27:04 10° N visible
05 Jun ? 06:17:58 10° N 06:21:25 53° W 06:24:56 10° SSW visible
05 Jun ? 19:30:38 10° WSW 19:31:17 10° WSW 19:31:54 10° W visible
06 Jun ? 05:52:46 10° NNE 05:56:14 54° ESE 05:59:44 10° S visible
06 Jun ? 19:03:13 10° SSW 19:06:12 24° WSW 19:09:10 10° NW visible
